FW4175 Weather Reports


time (UTC)temp
F
wind
direction
speed
knots
gust
knots
rain 1hr
in
rain 24hr
in
rain mn
in
humidity
%
barometer
mb
20260906115404 63 41 0.9 1.7 0.00 0.00 0.00 99 1021.4
20260906114902 63 352 0.0 0.9 0.00 0.00 0.00 99 1021.5
20260906114358 63 321 0.0 1.7 0.00 0.00 0.00 99 1021.5
20260906113854 63 59 0.0 0.9 0.00 0.00 0.00 99 1021.3
20260906113352 63 66 0.0 0.9 0.00 0.00 0.00 99 1021.2
20260906112848 63 41 0.0 1.7 0.00 0.00 0.00 99 1021.1
20260906112343 63 49 0.0 1.7 0.00 0.00 0.00 99 1021.1
20260906111838 63 31 0.0 1.7 0.00 0.00 0.00 99 1021.2
20260906111338 63 69 0.0 1.7 0.00 0.00 0.00 99 1021.4
20260906110833 63 48 0.0 1.7 0.00 0.00 0.00 99 1021.3
20260906110329 63 44 0.0 1.7 0.00 0.00 0.00 99 1021.2
20260906105827 63 319 0.0 0.9 0.00 0.00 0.00 99 1021.1
20260906105323 63 0 0.0 2.6 0.00 0.00 0.00 99 1021.1
20260906104819 63 32 0.0 1.7 0.00 0.00 0.00 99 1021.1
20260906104318 63 126 0.0 2.6 0.00 0.00 0.00 99 1021.0
20260906103816 63 49 0.0 0.9 0.00 0.00 0.00 99 1021.2
20260906103315 63 358 0.9 1.7 0.00 0.00 0.00 99 1020.7
20260906102811 63 74 0.0 1.7 0.00 0.00 0.00 99 1020.8
20260906102310 63 326 0.0 2.6 0.00 0.00 0.00 99 1021.2
20260906101805 63 50 0.0 0.9 0.00 0.00 0.00 99 1021.0
20260906101300 63 262 0.0 1.7 0.00 0.00 0.00 99 1021.0
20260906100756 63 269 0.0 1.7 0.00 0.00 0.00 99 1020.7
20260906100255 64 57 0.0 1.7 0.00 0.00 0.00 99 1020.6
20260906095750 64 342 0.9 1.7 0.00 0.00 0.00 99 1020.5
20260906095245 64 333 0.0 2.6 0.00 0.00 0.00 99 1020.5
20260906094744 64 22 0.0 3.5 0.00 0.00 0.00 99 1020.4
20260906094240 64 32 0.0 2.6 0.00 0.00 0.00 99 1020.5
20260906093736 64 3 0.9 2.6 0.00 0.00 0.00 99 1020.6
20260906093231 64 89 0.0 2.6 0.00 0.00 0.00 99 1020.5
20260906092726 64 354 0.0 2.6 0.00 0.00 0.00 99 1020.8
20260906092220 64 256 0.0 2.6 0.00 0.00 0.00 99 1020.5
20260906091717 64 47 1.7 2.6 0.00 0.00 0.00 99 1020.3
20260906091213 64 36 0.0 2.6 0.00 0.00 0.00 99 1020.6
20260906090709 64 37 0.0 1.7 0.00 0.00 0.00 99 1020.4
20260906090208 64 105 0.0 3.5 0.00 0.00 0.00 99 1020.6
20260906085707 64 35 1.7 2.6 0.00 0.00 0.00 99 1020.7
20260906085206 64 54 0.0 2.6 0.00 0.00 0.00 99 1020.3
20260906084701 64 11 1.7 2.6 0.00 0.00 0.00 99 1020.5
20260906084155 64 359 1.7 2.6 0.00 0.00 0.00 99 1020.7
20260906083650 64 50 0.0 1.7 0.00 0.00 0.00 99 1020.4
20260906083145 64 131 0.0 1.7 0.00 0.00 0.00 99 1020.6
20260906082640 64 32 0.0 1.7 0.00 0.00 0.00 99 1020.5
20260906082136 64 40 0.9 1.7 0.00 0.00 0.00 99 1020.5
20260906081632 64 38 0.0 1.7 0.00 0.00 0.00 99 1020.6
20260906081126 64 359 0.9 2.6 0.00 0.00 0.00 99 1020.4
20260906080623 64 4 0.0 1.7 0.00 0.00 0.00 99 1020.2
20260906080119 63 52 0.0 1.7 0.00 0.00 0.00 99 1020.1
20260906075612 63 313 0.0 1.7 0.00 0.00 0.00 99 1020.3
20260906075107 63 49 0.0 0.9 0.00 0.00 0.00 99 1020.3
20260906074603 64 129 0.0 0.0 0.00 0.00 0.00 99 1020.4
20260906074101 64 76 0.0 0.0 0.00 0.00 0.00 99 1020.2
20260906073557 63 76 0.0 0.9 0.00 0.00 0.00 99 1020.4
20260906073052 64 107 0.0 0.9 0.00 0.00 0.00 99 1020.4
20260906072547 64 130 0.0 0.9 0.00 0.00 0.00 99 1020.4
20260906072043 64 230 0.0 0.9 0.00 0.00 0.00 99 1020.5
20260906071539 64 89 0.0 0.0 0.00 0.00 0.00 99 1020.4
20260906071034 64 114 0.0 0.9 0.00 0.00 0.00 99 1020.3
20260906070530 64 99 0.0 1.7 0.00 0.00 0.00 99 1020.2
20260906070026 64 134 0.0 1.7 0.00 0.00 0.00 99 1020.5
20260906065525 64 89 0.0 0.9 0.00 0.00 0.00 99 1020.5
20260906065021 64 142 0.0 0.0 0.00 0.00 0.00 99 1020.3
20260906064516 65 130 0.0 1.7 0.00 0.00 0.00 99 1020.3
20260906064011 65 245 0.0 1.7 0.00 0.00 0.00 99 1020.6
20260906063507 65 235 0.0 0.9 0.00 0.00 0.00 99 1020.4
20260906063002 65 250 0.0 1.7 0.00 0.00 0.00 99 1020.4
20260906062457 65 269 0.0 0.9 0.00 0.00 0.00 99 1020.2
20260906061951 65 23 0.0 1.7 0.00 0.00 0.00 99 1020.6
20260906061447 65 124 0.0 0.9 0.00 0.00 0.00 99 1020.3
20260906060942 65 269 0.0 3.5 0.00 0.00 0.00 99 1020.3
20260906060439 65 358 0.0 2.6 0.00 0.00 0.00 99 1020.6
20260906055935 66 8 0.0 2.6 0.00 0.00 0.00 99 1020.4
20260906055431 66 339 0.9 2.6 0.00 0.00 0.00 99 1020.4
20260906054926 66 27 1.7 2.6 0.00 0.00 0.00 99 1020.6
20260906054421 66 19 0.0 1.7 0.00 0.00 0.00 99 1020.5
20260906053917 66 11 1.7 2.6 0.00 0.00 0.00 99 1020.4
20260906053412 66 37 0.0 3.5 0.00 0.00 0.00 99 1020.2
20260906052908 66 233 0.0 2.6 0.00 0.00 0.00 99 1020.4
20260906052404 66 266 0.0 2.6 0.00 0.00 0.00 99 1020.3
20260906051901 66 35 0.0 1.7 0.00 0.00 0.00 99 1020.2
20260906051401 66 359 1.7 3.5 0.00 0.00 0.00 99 1020.2
20260906050856 66 3 0.0 1.7 0.00 0.00 0.00 99 1020.1
20260906050350 66 269 0.0 1.7 0.00 0.00 0.00 99 1020.0
20260906045849 66 0 2.6 3.5 0.00 0.00 0.00 99 1020.0
20260906045344 67 346 0.9 2.6 0.00 0.00 0.00 99 1020.1
20260906044840 67 352 0.0 3.5 0.00 0.00 0.00 99 1019.9
20260906044340 67 352 0.9 2.6 0.00 0.00 0.00 99 1020.1
20260906043836 67 249 0.0 2.6 0.00 0.00 0.00 99 1019.7
20260906043332 67 343 2.6 3.5 0.00 0.00 0.00 99 1020.0
20260906042827 67 356 1.7 2.6 0.00 0.00 0.00 99 1019.8
20260906042325 67 352 2.6 3.5 0.00 0.00 0.00 99 1019.8
20260906041821 67 339 2.6 4.3 0.00 0.00 0.00 99 1019.6
20260906041317 67 329 1.7 4.3 0.00 0.00 0.00 99 1019.6
20260906040811 67 0 1.7 3.5 0.00 0.00 0.00 99 1019.7
20260906040307 67 343 0.0 4.3 0.00 0.00 0.00 99 1019.8
20260906035802 67 16 3.5 4.3 0.00 0.00 0.00 99 1019.6
20260906035258 67 358 1.7 2.6 0.00 0.00 0.00 99 1019.8
20260906034757 67 4 0.0 3.5 0.00 0.00 0.00 99 1019.5
20260906034252 67 9 1.7 5.2 0.00 0.00 0.00 99 1019.5
20260906033748 67 316 1.7 2.6 0.00 0.00 0.00 99 1019.7
20260906033247 67 309 0.0 2.6 0.00 0.00 0.00 99 1019.4
20260906032744 67 352 1.7 6.1 0.00 0.00 0.00 99 1019.5
20260906032243 68 13 0.9 4.3 0.00 0.00 0.00 99 1019.3
20260906031739 68 354 1.7 6.1 0.00 0.00 0.00 99 1019.7
20260906031235 68 3 3.5 4.3 0.00 0.00 0.00 99 1019.6
20260906030729 68 350 1.7 4.3 0.00 0.00 0.00 99 1019.4
20260906030224 68 356 2.6 6.1 0.00 0.00 0.00 99 1019.4
20260906025723 68 6 1.7 5.2 0.00 0.00 0.00 99 1019.2
20260906025218 68 9 2.6 5.2 0.00 0.00 0.00 99 1019.5
20260906024717 68 266 0.0 3.5 0.00 0.00 0.00 99 1019.8
20260906024216 68 7 2.6 4.3 0.00 0.00 0.00 99 1019.5
20260906023712 68 8 3.5 7.0 0.00 0.00 0.00 99 1019.4
20260906023207 68 352 1.7 7.8 0.00 0.00 0.00 99 1019.3
20260906022702 68 30 7.0 7.0 0.00 0.00 0.00 99 1019.4
20260906022158 68 39 0.0 5.2 0.00 0.00 0.00 99 1019.2
20260906021654 68 24 3.5 5.2 0.00 0.00 0.00 99 1019.4
20260906021152 68 75 1.7 6.1 0.00 0.00 0.00 99 1019.5
20260906020647 69 329 0.9 9.6 0.00 0.00 0.00 98 1019.4
20260906020142 69 358 2.6 3.5 0.00 0.00 0.00 98 1019.7
20260906015636 69 344 3.5 6.1 0.00 0.00 0.00 98 1019.3
20260906015134 69 335 4.3 7.8 0.00 0.00 0.00 97 1019.3
20260906014629 69 346 4.3 9.6 0.00 0.00 0.00 97 1019.4
20260906014125 69 353 0.9 6.1 0.00 0.00 0.00 97 1019.4
20260906013620 70 359 1.7 7.0 0.00 0.00 0.00 97 1019.4
20260906013116 70 356 2.6 10.4 0.00 0.00 0.00 97 1019.5
20260906012611 70 349 1.7 9.6 0.00 0.00 0.00 97 1019.5
20260906012110 70 355 2.6 6.1 0.00 0.00 0.00 97 1019.5
20260906011607 70 5 1.7 3.5 0.00 0.00 0.00 97 1019.3
20260906011101 70 37 4.3 9.6 0.00 0.00 0.00 97 1019.2
20260906010556 70 356 2.6 7.8 0.00 0.00 0.00 97 1019.3
20260906010053 70 347 4.3 6.1 0.00 0.00 0.00 97 1019.6
20260906005551 70 317 1.7 6.1 0.00 0.00 0.00 98 1019.2
20260906005051 70 84 0.9 6.1 0.00 0.00 0.00 98 1019.1
20260906004550 70 338 2.6 7.8 0.00 0.00 0.00 98 1019.1
20260906004045 70 7 2.6 9.6 0.00 0.00 0.00 98 1019.0
20260906003540 70 352 2.6 7.8 0.00 0.00 0.00 97 1018.8
20260906003036 70 2 1.7 6.1 0.00 0.00 0.00 98 1019.1
20260906002531 70 359 1.7 5.2 0.00 0.00 0.00 98 1019.1
20260906002026 70 343 3.5 10.4 0.00 0.00 0.00 98 1019.0
20260906001521 70 4 4.3 7.8 0.00 0.00 0.00 98 1019.0
20260906001015 70 336 5.2 15.6 0.00 0.00 0.00 98 1019.1
20260906000512 70 351 4.3 7.0 0.00 0.00 0.00 98 1019.1
20260906000006 70 347 5.2 14.8 0.00 0.00 0.00 97 1018.9
20260905235500 70 8 3.5 9.6 0.00 0.00 0.00 97 1018.9
20260905234955 70 358 3.5 10.4 0.00 0.00 0.00 97 1019.0
20260905234450 71 351 6.1 11.3 0.00 0.00 0.00 96 1019.0
20260905233944 71 348 2.6 13.0 0.00 0.00 0.00 96 1019.1
20260905233440 71 11 4.3 10.4 0.00 0.00 0.00 96 1019.1
20260905232938 71 329 1.7 6.1 0.00 0.00 0.00 96 1019.2
20260905232435 71 10 7.8 9.6 0.00 0.00 0.00 95 1018.9
20260905231930 71 342 13.0 14.8 0.00 0.00 0.00 95 1018.9
20260905231426 71 352 4.3 6.1 0.00 0.00 0.00 95 1019.0
20260905230917 71 4 3.5 8.7 0.00 0.00 0.00 95 1019.2
20260905230414 71 335 9.6 9.6 0.00 0.00 0.00 95 1019.0
20260905225908 71 357 7.0 8.7 0.00 0.00 0.00 94 1018.8
20260905225403 71 37 4.3 9.6 0.00 0.00 0.00 94 1018.9
20260905224858 72 343 5.2 9.6 0.00 0.00 0.00 93 1018.7
20260905224353 72 12 3.5 7.0 0.00 0.00 0.00 93 1018.9
20260905223847 72 32 4.3 10.4 0.00 0.00 0.00 93 1018.6
20260905223346 73 39 7.8 12.2 0.00 0.00 0.00 93 1018.5
20260905222840 73 17 2.6 8.7 0.00 0.00 0.00 92 1018.6
20260905222339 73 352 4.3 13.0 0.00 0.00 0.00 92 1018.8
20260905221835 74 10 4.3 12.2 0.00 0.00 0.00 91 1018.9
20260905221332 74 355 3.5 9.6 0.00 0.00 0.00 92 1018.8
20260905220827 74 9 7.8 10.4 0.00 0.00 0.00 92 1018.5
20260905220323 74 6 5.2 11.3 0.00 0.00 0.00 91 1018.6
20260905215822 75 338 2.6 8.7 0.00 0.00 0.00 90 1018.3
20260905215318 75 24 3.5 6.1 0.00 0.00 0.00 90 1018.4
20260905214815 76 332 4.3 7.8 0.00 0.00 0.00 89 1018.2
20260905214310 75 350 1.7 7.8 0.00 0.00 0.00 90 1018.3
20260905213804 76 50 5.2 7.8 0.00 0.00 0.00 89 1018.1
20260905213300 76 343 10.4 11.3 0.00 0.00 0.00 89 1018.3
20260905212755 76 26 5.2 7.0 0.00 0.00 0.00 88 1017.9
20260905212254 77 2 7.8 14.8 0.00 0.00 0.00 86 1017.7
20260905211749 79 340 4.3 9.6 0.00 0.00 0.00 84 1017.8
20260905211244 78 14 3.5 7.0 0.00 0.00 0.00 85 1018.0
20260905210742 79 318 0.9 13.9 0.00 0.00 0.00 85 1017.9
20260905210241 78 325 4.3 13.0 0.00 0.00 0.00 86 1017.6
20260905205739 78 347 6.1 13.0 0.00 0.00 0.00 84 1017.9
20260905205235 78 330 1.7 8.7 0.00 0.00 0.00 85 1017.8
20260905204734 79 0 2.6 10.4 0.00 0.00 0.00 86 1017.7
20260905204230 78 24 6.1 10.4 0.00 0.00 0.00 85 1017.8
20260905203729 79 290 2.6 8.7 0.00 0.00 0.00 87 1017.6
20260905203225 80 337 3.5 8.7 0.00 0.00 0.00 86 1017.7
20260905202720 80 296 1.7 12.2 0.00 0.00 0.00 86 1017.7
20260905202215 81 353 2.6 7.8 0.00 0.00 0.00 84 1017.6
20260905201710 81 297 2.6 6.1 0.00 0.00 0.00 83 1017.6
20260905201205 80 24 1.7 10.4 0.00 0.00 0.00 83 1017.9
20260905200700 80 10 3.5 6.1 0.00 0.00 0.00 83 1017.8
20260905200155 80 356 7.0 10.4 0.00 0.00 0.00 82 1018.0
20260905195654 81 266 0.9 5.2 0.00 0.00 0.00 82 1017.9
20260905195149 80 5 2.6 6.1 0.00 0.00 0.00 83 1017.7
20260905194644 80 337 2.6 7.0 0.00 0.00 0.00 83 1018.0
20260905194138 81 350 3.5 10.4 0.00 0.00 0.00 81 1018.0
20260905193632 80 329 6.1 7.8 0.00 0.00 0.00 82 1017.9
20260905193127 81 15 2.6 6.1 0.00 0.00 0.00 81 1018.0
20260905192623 80 294 2.6 5.2 0.00 0.00 0.00 84 1018.2
20260905192119 79 2 2.6 7.0 0.00 0.00 0.00 85 1018.1
20260905191618 80 0 2.6 10.4 0.00 0.00 0.00 83 1018.2
20260905191117 79 302 1.7 6.1 0.00 0.00 0.00 85 1018.0
20260905190615 78 255 3.5 7.0 0.00 0.00 0.00 88 1018.1
20260905190114 78 348 3.5 8.7 0.00 0.00 0.00 86 1018.5
20260905185613 78 341 2.6 6.1 0.00 0.00 0.00 87 1018.4
20260905185108 78 309 3.5 11.3 0.00 0.00 0.00 88 1018.4
20260905184603 78 342 5.2 9.6 0.00 0.00 0.00 88 1018.5
20260905184102 78 352 3.5 5.2 0.00 0.00 0.00 88 1018.5
20260905183601 78 308 1.7 7.0 0.00 0.00 0.00 88 1018.2
20260905183057 78 54 2.6 10.4 0.00 0.00 0.00 86 1018.4
20260905182556 78 340 3.5 5.2 0.00 0.00 0.00 88 1018.5
20260905182050 78 313 3.5 7.0 0.00 0.00 0.00 89 1018.6
20260905181545 77 24 3.5 4.3 0.00 0.00 0.00 91 1018.4
20260905181044 76 351 1.7 8.7 0.00 0.00 0.00 91 1018.3
20260905180539 76 351 5.2 8.7 0.00 0.00 0.00 90 1018.5
20260905180035 76 273 4.3 7.0 0.00 0.00 0.00 91 1018.6
20260905175533 76 341 3.5 7.0 0.00 0.00 0.00 92 1018.4
20260905175030 76 9 11.3 11.3 0.00 0.00 0.00 91 1018.6
20260905174525 76 300 4.3 9.6 0.00 0.00 0.00 92 1018.1
20260905174020 76 1 5.2 8.7 0.00 0.00 0.00 91 1018.3
20260905173517 76 343 6.1 10.4 0.00 0.00 0.00 92 1018.5
20260905173012 76 320 3.5 8.7 0.00 0.00 0.00 93 1018.4
20260905172510 76 17 2.6 6.1 0.00 0.00 0.00 93 1018.6
20260905172006 76 358 2.6 4.3 0.00 0.00 0.00 93 1018.5
20260905171502 76 302 1.7 6.1 0.00 0.00 0.00 92 1018.4
20260905170958 76 283 0.0 2.6 0.00 0.00 0.00 93 1018.7
20260905170454 75 238 0.0 3.5 0.00 0.00 0.00 94 1018.7
20260905165953 75 353 2.6 6.1 0.00 0.00 0.00 94 1018.6
20260905165449 75 349 2.6 9.6 0.00 0.00 0.00 93 1018.7
20260905164944 75 324 1.7 7.0 0.00 0.00 0.00 93 1018.6
20260905164438 75 284 1.7 4.3 0.00 0.00 0.00 94 1018.6
20260905163933 75 309 2.6 6.1 0.00 0.00 0.00 94 1018.7
20260905163430 74 348 3.5 7.8 0.00 0.00 0.00 94 1018.5
20260905162925 75 354 3.5 7.8 0.00 0.00 0.00 94 1018.6
20260905162420 75 5 4.3 6.1 0.00 0.00 0.00 94 1018.7
20260905161916 75 317 2.6 7.8 0.00 0.00 0.00 94 1018.5
20260905161415 75 336 4.3 8.7 0.00 0.00 0.00 94 1018.7
20260905160912 75 344 0.9 7.0 0.00 0.00 0.00 94 1018.7
20260905160406 74 324 4.3 5.2 0.00 0.00 0.00 95 1018.5
20260905155900 73 8 9.6 9.6 0.00 0.00 0.00 96 1018.6
20260905155355 73 11 2.6 6.1 0.00 0.00 0.00 96 1018.5
20260905154854 73 343 12.2 12.2 0.00 0.00 0.00 96 1018.4
20260905154350 74 358 4.3 11.3 0.00 0.00 0.00 96 1018.5
20260905153845 74 330 2.6 7.0 0.00 0.00 0.00 96 1018.1
20260905153342 74 351 1.7 8.7 0.00 0.00 0.00 96 1018.3
20260905152841 74 12 2.6 5.2 0.00 0.00 0.00 95 1018.2
20260905152340 74 344 3.5 8.7 0.00 0.00 0.00 95 1018.1
20260905151835 75 12 4.3 7.0 0.00 0.00 0.00 95 1018.0
20260905151331 74 315 2.6 4.3 0.00 0.00 0.00 95 1018.2
20260905150825 74 17 1.7 6.1 0.00 0.00 0.00 96 1018.2
20260905150319 74 338 1.7 6.1 0.00 0.00 0.00 96 1018.1
20260905145817 74 19 3.5 7.0 0.00 0.00 0.00 97 1018.0
20260905145317 73 31 5.2 6.1 0.00 0.00 0.00 97 1018.0
20260905144815 74 321 1.7 7.0 0.00 0.00 0.00 97 1018.0
20260905144312 74 62 2.6 3.5 0.00 0.00 0.00 98 1017.8
20260905143810 73 11 3.5 8.7 0.00 0.00 0.00 98 1018.1
20260905143305 73 358 0.0 4.3 0.00 0.00 0.00 98 1018.0
20260905142803 73 45 2.6 7.0 0.00 0.00 0.00 98 1017.9
20260905142258 73 18 4.3 7.0 0.00 0.00 0.00 98 1017.7
20260905141754 73 354 2.6 5.2 0.00 0.00 0.00 98 1017.7
20260905141249 73 358 2.6 8.7 0.00 0.00 0.00 99 1017.9
20260905140744 73 215 0.0 6.1 0.00 0.00 0.00 99 1017.7
20260905140239 73 6 4.3 6.1 0.00 0.00 0.00 99 1017.5
20260905135738 73 348 4.3 6.1 0.00 0.00 0.00 99 1017.5
20260905135234 73 336 1.7 6.1 0.00 0.00 0.00 99 1017.8
20260905134733 72 335 4.3 7.0 0.00 0.00 0.00 99 1017.5
20260905134232 72 1 2.6 7.8 0.00 0.00 0.00 99 1017.5
20260905133728 72 299 1.7 7.8 0.00 0.00 0.00 99 1017.8
20260905133223 72 343 3.5 8.7 0.00 0.00 0.00 99 1017.7
20260905132721 72 0 2.6 5.2 0.00 0.00 0.00 99 1017.6
20260905132218 72 346 3.5 6.1 0.00 0.00 0.00 99 1017.9
20260905131713 72 10 1.7 5.2 0.00 0.00 0.00 99 1017.8
20260905131208 72 352 4.3 7.0 0.00 0.00 0.00 99 1017.7
20260905130702 72 349 3.5 5.2 0.00 0.00 0.00 99 1017.6
20260905130202 72 357 4.3 6.1 0.00 0.00 0.00 99 1017.5
20260905125656 72 333 2.6 7.0 0.00 0.00 0.00 99 1017.4
20260905125152 72 34 6.1 6.1 0.00 0.00 0.00 99 1017.3
20260905124648 72 356 3.5 7.0 0.00 0.00 0.00 99 1017.3
20260905124143 72 286 1.7 6.1 0.00 0.00 0.00 99 1016.9
20260905123633 71 357 6.1 7.8 0.00 0.00 0.00 99 1017.1
20260905123130 71 351 2.6 8.7 0.00 0.00 0.00 99 1017.1
20260905122630 71 348 2.6 5.2 0.00 0.00 0.00 99 1016.9
20260905122124 71 352 2.6 6.1 0.00 0.00 0.00 99 1016.9
20260905121619 71 267 2.6 6.1 0.00 0.00 0.00 99 1016.7
20260905121115 71 111 0.0 3.5 0.00 0.00 0.00 99 1016.4
20260905120614 71 47 0.0 2.6 0.00 0.00 0.00 99 1016.4
20260905120109 71 329 2.6 4.3 0.00 0.00 0.00 99 1016.4